[[{"header":{"parameterUnit":"m.s-1","parameterCategory":1,"la1":30.2991,"la2":30.254,"lo1":-89.0895,"lo2":-89.0444,"dy":0.0017,"dx":0.0017,"nx":28,"ny":28,"refTime":"2024-03-11T03:00:00:Z","depth":0,"parameterNumber":2,"parameterNumberName":"U-component_of_WINDS"},"data":[0,0,0,0,0,0,0,0,0,0,0,0,0,0,0,0,0,0,0,0,0,0,0,0,0,0,0,0,0,0,0,0,0,0,0,0,0,0,0,0,0,0,0,0,0,0,0,0,0,0,0,0,0,0,0,0,0,0,-0.6049,-0.605,0,-0.6069,-0.6069,-0.6069,-0.6056,-0.6055,-0.6054,-0.6054,-0.6074,-0.6075,-0.6076,0,0,0,0,0,0,0,0,0,0,0,0,0,-0.6001,-0.6002,-0.6049,-0.605,-0.605,-0.6069,-0.6069,-0.6069,-0.6056,-0.6055,-0.6054,-0.6053,-0.6073,-0.6075,-0.6076,0,0,0,0,0,0,0,0,0,0,0,0,0,-0.6021,-0.6002,-0.6049,-0.6045,-0.6045,-0.6069,-0.6069,-0.6069,-0.6056,-0.6055,-0.6054,-0.6053,-0.6073,-0.6075,-0.6076,-0.6105,0,0,-0.6081,-0.6082,0,0,0,0,0,0,0,0,-0.602,-0.6023,-0.6046,-0.6046,-0.6046,-0.6059,-0.6059,-0.6081,-0.6056,-0.6052,-0.6054,-0.6053,-0.607,-0.6071,-0.6077,-0.6106,-0.6107,-0.6081,-0.6082,-0.6083,-0.6084,0,0,0,0,0,0,0,-0.6019,-0.6022,-0.6057,-0.6046,-0.6046,-0.6043,-0.6045,-0.6063,-0.6066,-0.6052,-0.6051,-0.6054,-0.6069,-0.6076,-0.6077,-0.6107,-0.6081,-0.6083,-0.6084,-0.6085,-0.6161,-0.6162,0,0,0,0,0,0,-0.6018,-0.6021,-0.6056,-0.6058,-0.603,-0.6044,-0.6046,-0.6055,-0.6065,-0.6066,-0.6054,-0.6053,-0.6073,-0.6076,-0.6078,-0.6113,-0.6083,-0.6085,-0.6086,-0.616,-0.6161,-0.6162,0,0,0,0,0,0,-0.6017,-0.6021,-0.6056,-0.6039,-0.6043,-0.6046,-0.6056,-0.6056,-0.6063,-0.6067,-0.6067,-0.606,-0.6073,-0.6076,-0.6098,-0.6113,-0.6085,-0.6087,-0.6158,-0.616,-0.6161,-0.6182,0,0,0,0,0,0,-0.6015,-0.6021,-0.6031,-0.6039,-0.6044,-0.6076,-0.6057,-0.6057,-0.6065,-0.6064,-0.6073,-0.6073,-0.6072,-0.6096,-0.61,-0.6115,-0.6088,-0.6157,-0.6159,-0.6161,-0.618,-0.6184,-0.6187,0,0,0,0,0,-0.6014,-0.6036,-0.6032,-0.6036,-0.6058,-0.6076,-0.6079,-0.6077,-0.6067,-0.6078,-0.6081,-0.6073,-0.6111,-0.6098,-0.6103,-0.6119,-0.6156,-0.6159,-0.6161,-0.6178,-0.6183,-0.6187,0,0,0,0,0,0,-0.603,-0.6037,-0.6033,-0.6059,-0.6067,-0.6074,-0.6088,-0.6082,-0.6094,-0.6092,-0.6089,-0.6091,-0.6115,-0.6119,-0.6105,-0.6147,-0.6132,-0.6135,-0.6144,-0.6148,-0.6152,-0.6151,-0.609,0,0,0,0,0,-0.6036,-0.6051,-0.6057,-0.6079,-0.6084,-0.6085,-0.6093,-0.6091,-0.6099,-0.6103,-0.6108,-0.6116,-0.613,-0.6139,-0.6152,-0.618,-0.6182,-0.6193,-0.6197,-0.62,-0.6203,-0.6219,-0.6224,-0.617,-0.617,-0.617,0,0,-0.605,-0.6056,-0.6065,-0.6082,-0.6089,-0.6104,-0.6088,-0.6105,-0.6116,-0.6105,-0.6127,-0.6131,-0.6141,-0.6166,-0.6178,-0.617,-0.6218,-0.6203,-0.6205,-0.6207,-0.6221,-0.6227,-0.6231,-0.6171,-0.6171,-0.6171,0,0,-0.6083,-0.6089,-0.6109,-0.6115,-0.6125,-0.6126,-0.6131,-0.6139,-0.6141,-0.6163,-0.6155,-0.6169,-0.6192,-0.62,-0.6206,-0.6243,-0.6236,-0.6247,-0.6267,-0.6282,-0.6286,-0.629,-0.6303,-0.6308,-0.625,-0.625,-0.625,0,-0.6099,-0.6122,-0.6119,-0.6137,-0.6145,-0.6136,-0.6156,-0.6162,-0.6176,-0.6182,-0.6173,-0.6203,-0.6209,-0.6236,-0.6245,-0.6251,-0.6256,-0.6246,-0.6286,-0.6289,-0.6293,-0.6306,-0.6311,-0.6251,-0.6251,-0.6251,-0.6251,0,-0.6141,-0.6157,-0.6172,-0.6185,-0.6195,-0.6213,-0.6214,-0.6224,-0.6221,-0.6223,-0.6245,-0.6252,-0.6266,-0.6272,-0.627,-0.63,-0.6295,-0.6286,-0.6271,-0.6299,-0.6311,-0.6316,-0.6253,-0.6253,-0.6252,-0.6252,0,0,-0.6185,-0.6197,-0.6203,-0.6209,-0.6219,-0.6231,-0.625,-0.6264,-0.6273,-0.6282,-0.6298,-0.6318,-0.631,-0.6318,-0.6316,-0.6329,-0.6358,-0.6319,-0.6319,-0.6327,-0.6392,-0.6399,-0.6405,-0.6354,-0.6355,-0.6356,-0.6392,0,-0.6219,-0.6251,-0.625,-0.628,-0.6295,-0.6286,-0.6302,-0.6311,-0.6313,-0.6326,-0.6328,-0.6343,-0.6331,-0.6336,-0.6349,-0.6352,-0.6372,-0.6349,-0.6369,-0.637,-0.6367,-0.6411,-0.6418,-0.6452,-0.6396,-0.6397,-0.6398,0,-0.6263,-0.6275,-0.6306,-0.6315,-0.6321,-0.6335,-0.6348,-0.6361,-0.637,-0.6371,-0.638,-0.6375,-0.6394,-0.6378,-0.6404,-0.6389,-0.6397,-0.64,-0.6401,-0.6403,-0.6386,-0.6415,-0.6462,-0.6468,-0.6405,-0.6404,-0.6404,0,-0.6293,-0.6316,-0.6338,-0.6344,-0.6354,-0.6364,-0.6369,-0.6377,-0.6386,-0.6397,-0.6403,-0.6416,-0.6424,-0.6434,-0.6434,-0.6422,-0.6461,-0.6445,-0.6462,-0.6462,-0.6471,-0.647,-0.6521,-0.6475,-0.6475,-0.6475,-0.6475,0,-0.6331,-0.6351,-0.6352,-0.6365,-0.6387,-0.6385,-0.6407,-0.6411,-0.6418,-0.6432,-0.6426,-0.6439,-0.6438,-0.6452,-0.6452,-0.6474,-0.6477,-0.6478,-0.6478,-0.6479,-0.6479,-0.6484,-0.6482,-0.6476,-0.6476,-0.6476,-0.6475,0,-0.6368,-0.6369,-0.6393,-0.6401,-0.6403,-0.6419,-0.6426,-0.6439,-0.644,-0.6459,-0.6463,-0.6466,-0.6482,-0.6482,-0.65,-0.65,-0.6527,-0.6524,-0.6524,-0.6524,-0.6541,-0.654,-0.6598,-0.6605,-0.6554,-0.6555,-0.6555,0,-0.6393,-0.6408,-0.6418,-0.6427,-0.6432,-0.6447,-0.6456,-0.6454,-0.6464,-0.6476,-0.6487,-0.6503,-0.6515,-0.6541,-0.6544,-0.6558,-0.6556,-0.6575,-0.6558,-0.6559,-0.6557,-0.6556,-0.6558,-0.6579,-0.6579,-0.658,-0.658,0,-0.6437,-0.6437,-0.645,-0.6463,-0.6474,-0.6485,-0.6494,-0.6502,-0.6502,-0.6513,-0.6529,-0.6539,-0.6557,-0.6573,-0.6587,-0.6592,-0.6586,-0.6585,-0.659,-0.6592,-0.6591,-0.6592,-0.6534,-0.6584,-0.6584,-0.6583,-0.6583,-0.6583,-0.6469,-0.6482,-0.6491,-0.6506,-0.6513,-0.6522,-0.6535,-0.6539,-0.6552,-0.6567,-0.6565,-0.6584,-0.6593,-0.661,-0.6616,-0.6631,-0.6624,-0.6631,-0.6633,-0.6635,-0.6637,-0.6589,-0.6633,-0.6633,-0.6633,-0.6633,-0.6633,0,-0.6513,-0.6518,-0.6532,-0.6546,-0.6558,-0.6551,-0.6562,-0.6572,-0.6588,-0.6597,-0.6609,-0.6628,-0.6643,-0.6648,-0.6663,-0.6673,-0.6671,-0.6677,-0.6677,-0.6678,-0.6642,-0.6636,-0.6679,-0.6679,-0.6679,-0.6679,-0.6679,-0.6679,-0.6538,-0.656,-0.6561,-0.6586,-0.6591,-0.6609,-0.6616,-0.6624,-0.6632,-0.6653,-0.6665,-0.6668,-0.6676,-0.6691,-0.6704,-0.6705,-0.6711,-0.6719,-0.6719,-0.6685,-0.668,-0.6676,-0.6671,-0.672,-0.672,-0.6754,-0.6754,-0.6754]},{"header":{"parameterUnit":"m.s-1","parameterCategory":1,"la1":30.2991,"la2":30.254,"lo1":-89.0895,"lo2":-89.0444,"dy":0.0017,"dx":0.0017,"nx":28,"ny":28,"refTime":"2024-03-11T03:00:00:Z","depth":0,"parameterNumber":3,"parameterNumberName":"V-component_of_WINDS"},"data":[0,0,0,0,0,0,0,0,0,0,0,0,0,0,0,0,0,0,0,0,0,0,0,0,0,0,0,0,0,0,0,0,0,0,0,0,0,0,0,0,0,0,0,0,0,0,0,0,0,0,0,0,0,0,0,0,0,0,0.6988,0.6988,0,0.6933,0.6933,0.6932,0.6858,0.6857,0.6856,0.6855,0.6798,0.6797,0.6797,0,0,0,0,0,0,0,0,0,0,0,0,0,0.703,0.7029,0.6989,0.6988,0.6987,0.6933,0.6933,0.6932,0.6859,0.6857,0.6856,0.6854,0.6798,0.6797,0.6797,0,0,0,0,0,0,0,0,0,0,0,0,0,0.6997,0.7029,0.6989,0.6944,0.694,0.6934,0.6933,0.6932,0.6859,0.6857,0.6855,0.6853,0.6798,0.6797,0.6797,0.683,0,0,0.6795,0.6795,0,0,0,0,0,0,0,0,0.6999,0.6995,0.6951,0.6947,0.6942,0.6901,0.6926,0.6898,0.6859,0.6889,0.6855,0.6853,0.6833,0.683,0.6823,0.6827,0.6825,0.6795,0.6795,0.6794,0.6794,0,0,0,0,0,0,0,0.7001,0.6997,0.6967,0.6951,0.6945,0.6927,0.692,0.692,0.6872,0.6887,0.6881,0.6876,0.6831,0.6824,0.6822,0.6824,0.6795,0.6794,0.6794,0.6794,0.6851,0.6852,0,0,0,0,0,0,0.701,0.7,0.6968,0.6965,0.6967,0.6927,0.692,0.6916,0.6872,0.6864,0.6877,0.6872,0.6826,0.6822,0.6819,0.6854,0.6794,0.6794,0.6794,0.6849,0.6851,0.6853,0,0,0,0,0,0,0.7011,0.7008,0.6971,0.6981,0.6975,0.6929,0.6925,0.6916,0.6909,0.6865,0.6856,0.688,0.6824,0.682,0.6828,0.6851,0.6794,0.6793,0.6847,0.685,0.6852,0.6924,0,0,0,0,0,0,0.7013,0.7009,0.7021,0.6982,0.6974,0.698,0.6926,0.6916,0.6909,0.6902,0.6865,0.6857,0.6823,0.6829,0.6827,0.6849,0.6793,0.6844,0.6848,0.6851,0.692,0.6929,0.6938,0,0,0,0,0,0.7015,0.7044,0.7022,0.7019,0.6989,0.6982,0.6978,0.6938,0.6911,0.6922,0.6894,0.6858,0.6849,0.683,0.6828,0.685,0.6843,0.6847,0.6851,0.6916,0.6927,0.6937,0,0,0,0,0,0,0.7087,0.7038,0.7013,0.7031,0.7011,0.6969,0.6983,0.6951,0.6939,0.6933,0.6884,0.6876,0.6889,0.687,0.685,0.6879,0.684,0.6844,0.6891,0.6901,0.691,0.6914,0.6792,0,0,0,0,0,0.7106,0.7104,0.7061,0.7081,0.7072,0.703,0.7025,0.6996,0.6973,0.6964,0.6936,0.6916,0.6908,0.6904,0.6894,0.6917,0.6907,0.6931,0.694,0.6948,0.6951,0.696,0.697,0.6867,0.6867,0.6867,0,0,0.7143,0.7116,0.7118,0.7094,0.7076,0.7075,0.7023,0.7024,0.7023,0.6964,0.6969,0.6949,0.6922,0.6937,0.6942,0.6922,0.6978,0.6953,0.6959,0.6958,0.6966,0.6976,0.6984,0.687,0.6869,0.6869,0,0,0.721,0.719,0.7203,0.7186,0.7158,0.7129,0.7133,0.7096,0.708,0.7084,0.704,0.7038,0.7026,0.7008,0.6998,0.7059,0.7025,0.7057,0.7103,0.7113,0.7121,0.7128,0.7148,0.7156,0.7061,0.7061,0.7061,0,0.7259,0.7257,0.7214,0.7218,0.7209,0.7156,0.7169,0.7154,0.7125,0.712,0.7097,0.708,0.7059,0.7069,0.7084,0.7077,0.7079,0.706,0.7123,0.713,0.7136,0.7154,0.7162,0.7065,0.7065,0.7064,0.7064,0,0.7318,0.7317,0.7332,0.7304,0.7297,0.7306,0.7264,0.7262,0.7233,0.7207,0.7212,0.7185,0.7168,0.7168,0.7141,0.7174,0.7162,0.7132,0.7092,0.715,0.7167,0.7174,0.7071,0.7069,0.7068,0.7067,0,0,0.7429,0.7378,0.7384,0.7371,0.7337,0.7335,0.7341,0.7325,0.7323,0.7305,0.7308,0.7299,0.7271,0.726,0.723,0.7239,0.7287,0.7207,0.7206,0.7222,0.732,0.7341,0.7351,0.7265,0.7266,0.7267,0.7322,0,0.7488,0.7496,0.7458,0.7475,0.7473,0.7423,0.7428,0.7408,0.7384,0.7378,0.7351,0.7345,0.7309,0.7302,0.7308,0.728,0.7306,0.7275,0.7266,0.7266,0.7273,0.7359,0.7382,0.7435,0.7328,0.7329,0.733,0,0.7558,0.7544,0.7561,0.7525,0.7523,0.7528,0.751,0.7506,0.7481,0.7463,0.745,0.7416,0.7418,0.7382,0.7384,0.7364,0.7358,0.7344,0.7345,0.7341,0.7301,0.7357,0.7451,0.7459,0.734,0.7339,0.7339,0,0.7636,0.7621,0.7628,0.7619,0.7578,0.7583,0.7566,0.7539,0.7532,0.7516,0.7511,0.7496,0.7487,0.7476,0.7438,0.7415,0.7445,0.7405,0.7429,0.743,0.7436,0.7436,0.7529,0.7435,0.7435,0.7435,0.7435,0,0.7705,0.7717,0.7662,0.7667,0.7679,0.7636,0.7648,0.7626,0.7603,0.7603,0.7559,0.7559,0.751,0.7504,0.7475,0.7481,0.7478,0.7462,0.7454,0.7465,0.7467,0.746,0.7454,0.7437,0.7436,0.7436,0.7436,0,0.7793,0.7757,0.7762,0.7723,0.7713,0.7724,0.7689,0.7692,0.7665,0.7665,0.7662,0.762,0.7611,0.7573,0.7555,0.7535,0.755,0.7535,0.7559,0.7553,0.7578,0.7576,0.7669,0.7678,0.758,0.7581,0.7582,0,0.7839,0.7847,0.7809,0.7805,0.779,0.7785,0.7777,0.7735,0.7728,0.7701,0.7707,0.7694,0.7682,0.767,0.7637,0.7623,0.7606,0.764,0.7604,0.7615,0.7605,0.7605,0.7605,0.7648,0.7649,0.765,0.7651,0,0.7924,0.7905,0.7896,0.7881,0.7873,0.7858,0.7842,0.7841,0.7794,0.7789,0.7779,0.777,0.7751,0.7739,0.772,0.7701,0.7668,0.7663,0.7667,0.7678,0.7691,0.7683,0.7578,0.766,0.7659,0.7659,0.7658,0.7658,0.7991,0.7995,0.7969,0.796,0.7943,0.7928,0.7928,0.7902,0.7893,0.7875,0.785,0.7844,0.7818,0.7788,0.7773,0.7767,0.7748,0.7755,0.7756,0.7758,0.7763,0.7693,0.7763,0.7763,0.7762,0.7762,0.7762,0,0.8072,0.8053,0.8045,0.8023,0.8016,0.7986,0.7965,0.7961,0.7956,0.7935,0.7924,0.7913,0.7901,0.7868,0.7852,0.7854,0.7838,0.7851,0.7849,0.7846,0.7782,0.7779,0.7864,0.7864,0.7864,0.7864,0.7864,0.7864,0.8114,0.8119,0.8098,0.8095,0.8075,0.8069,0.8059,0.8045,0.8028,0.8018,0.8008,0.7987,0.796,0.7943,0.793,0.792,0.7916,0.7934,0.7919,0.786,0.785,0.7841,0.7838,0.7934,0.7934,0.7983,0.7984,0.7984]}]]